DEAR-5 (67070 NORAD) Tracking and Keplerian Element Data

This shows tracking and keplerian element data for the satellite.

Feedback or suggestion? Click here.




ElementValue
Catalog67070
NameDEAR-5
Epoch Orbit108
Epoch Day354.20758602
Epoch Year2025
RAAN58.967
Inclination41.3552
Eccentricity0.0016078
Argument of Perigee79.8478
Mean Anonmoly280.4156
Mean Motion15.16879281
Decay Rate4.371E-05
L11 67070U 25296B 25354.20758602 .00004371 00000+0 22721-3 0 9994
L22 67070 41.3552 58.9670 0016078 79.8478 280.4156 15.16879281 1085



Live tracking and technical data element details for DEAR-5 (NORAD 67070). DEAR-5 can be tracked NOW for your location showing map with azimuth and elevation plus other details from your city location.







IsCatalogInMostPopularTable: catalog: 67070, numindb: 81
Update: records affected: 1



GetName: 67070 DEAR-5

Hit Count: updated at: Thu, 16 Apr 2026 05:26:04 GMT